Flag for US Virgin Islands Weather past 2 weeks in Charlotte Amalie, US Virgin Islands

82 °F

Passing clouds.

Feels Like: 89 °F
Forecast: N/A
Wind: 9 mph from Southeast

Location: Cyril E. King International Airport

Current Time: Nov 27, 2015 at 7:12:20 PM

Latest Report: Nov 27, 2015 at 5:53 PM

Visibility: 10 mi

Pressure: 29.88 "Hg

Humidity: 82%

Dew point: 76 °F

Location of Charlotte AmalieLocation

Historic Weather in Charlotte Amalie — Graph


Charlotte Amalie temperature yesterday

Maximum temperature yesterday: 85 °F (at 10:53 AM)
Minimum temperature yesterday: 77 °F (at 5:53 AM)
Average temperature yesterday: 81 °F

Past Weeks' High & Low Weather Summary

High87 °F (Nov 13, 10:53 AM)97% (Nov 16, 8:01 PM)30.07 "Hg (Nov 16, 8:01 PM)
Low73 °F (Nov 22, 12:53 AM)48% (Nov 20, 10:53 AM)29.85 "Hg (Nov 20, 2:53 PM)
Average80 °F78%29.94 "Hg
* Reported Nov 12 5:53 PM — Nov 27 5:53 PM, Charlotte Amalie, Weather by CustomWeather, © 2015

Note: Actual official high and low records may vary slightly from our data, if they occured in-between our weather recording intervals... More about our weather records


Charlotte Amalie weather history for previous 24 hours

Time TempWeatherWind HumidityBarometerVisibility
5:53 PM
Fri, Nov 27
82 °FPassing clouds.9 mph82%29.88 "Hg10 mi
4:53 PM83 °FScattered clouds.10 mph77%29.86 "Hg10 mi
3:53 PM84 °FPassing clouds.8 mph77%29.87 "Hg10 mi
2:53 PM84 °FPassing clouds.8 mph77%29.88 "Hg10 mi
1:53 PM85 °FPassing clouds.10 mph77%29.90 "Hg10 mi
12:53 PM85 °FScattered clouds.9 mph75%29.93 "Hg10 mi
11:53 AM84 °FSunny.12 mph74%29.94 "Hg10 mi
10:53 AM84 °FSunny.9 mph77%29.96 "Hg10 mi
9:53 AM83 °FPassing clouds.10 mph77%29.96 "Hg10 mi
8:53 AM82 °FPassing clouds.13 mph79%29.95 "Hg10 mi
8:32 AM82 °FScattered clouds.10 mph77%29.94 "Hg10 mi
7:53 AM81 °FScattered clouds.12 mph82%29.93 "Hg10 mi
6:53 AM79 °FScattered clouds.10 mph88%29.90 "Hg10 mi
5:53 AM80 °FPassing clouds.9 mph81%29.90 "Hg10 mi
4:53 AM78 °FPassing clouds.6 mph90%29.90 "Hg10 mi
3:53 AM78 °FClear.6 mph87%29.91 "Hg10 mi
2:53 AM77 °FClear.7 mph90%29.92 "Hg10 mi
1:53 AM79 °FPassing clouds.6 mph84%29.94 "Hg10 mi
12:53 AM78 °FClear.7 mph87%29.95 "Hg10 mi
11:53 PM
Thu, Nov 26
79 °FClear.7 mph84%29.96 "Hg10 mi
10:53 PM79 °FClear.6 mph84%29.97 "Hg10 mi
9:53 PM79 °FClear.9 mph84%29.97 "Hg10 mi
8:53 PM79 °FPassing clouds.8 mph88%29.97 "Hg10 mi
7:53 PM79 °FClear.7 mph84%29.96 "Hg10 mi
Weather by CustomWeather, © 2015

See weather overviewHow to use our weather pages